Showing default

EYESAT A, 22825

Orbit data source: Space-Track

EYESAT A, 22825 is a payload satellite owned by Interfer (US) in SSO that was launched on Sun, 26 Sep 1993 UTC via an ARIANE 40 launch vehicle from the French Guiana (FRGUI). Payload-class satellites include a variety of spacecraft equipped with specific instruments for various scientific and technological missions. These include communications satellites like Starlink; space stations such as the ISS; scientific satellites like the Hubble; Earth observation satellites from companies like Planet Labs, Umbra, and HawkEye 360; GPS; miniature CubeSats for education and research; and military/defense satellites.

Loading next visibility...
Identifier
22825, 1993-061C
Orbit
SSO
Country
Flag of USUS
Related business
Manufacturer
Interfer
Mission
Partially operational Commercial Communications
Bus & Motor
MICROSAT, Unknown motor
Mass
12 kg wet, 12 kg dry
Launch date (UTC)
1993-09-26 (33 years ago)
Launch vehicle
ARIANE 40
Launch site
French Guiana (FRGUI)
Object type
Payload
Rocket body
Debris
Shape & HBR
Box, 0.1 m
Radar Cross Section
0.135 m², Medium (>0.1 m² and < 1m²)

Expand to show TLE details & history
Last TLE update: 12 hours ago

TLE from 12 hours ago
0 EYESAT A
1 22825U 93061C   26095.13867373  .00000158  00000-0  77285-4 0  9995
2 22825  98.6929 162.5617 0007547 320.7538  39.3096 14.30922415696555
Epoch: 2026-04-05T03:19Z
TLE epoch observation values (Epoch: 2026-04-05T03:19:41.410Z)
Latitude
-0.00008°
Longitude
-80.80922°
Altitude
787.395 km
Speed
7.462 km/s
True Right ascension
10h 50m 14s
True Declination
0° 00' 00"
Sunlit
Object was in full shadow at epoch
Visualization orbit readout
Latitude
Unknown
Longitude
Unknown
Altitude
Unknown
Speed
Unknown
Apparent Right ascension
Unknown
Apparent Declination
Unknown
Sunlit
N/A
Visualization observer readout
Local Sidereal Time
21:11:36
Azimuth
Unknown
Elevation
Unknown
Doppler factor
Unknown
Orbital elements
Apogee altitude
791.199 km
Perigee altitude
780.386 km
Semi-major axis
7,163.929 km
Eccentricity
0.00075
Inclination
98.6929°
RAAN
162.5617°
Arg. of periapsis
320.7538°
True anomaly
39.36443°
Mean anomaly
39.3096°
Eccentric anomaly
39.33701°
Mean motion
3.57945 °/min
Orbital period
100.57 mins
BSTAR
0.000077285
Loading maneuver chart data...
Computing Atmospheric mass density...
Loading historical data...
Loading historical data...
Loading historical data...
Loading historical data...
Loading historical data...
Loading historical data...
Loading historical data...

Documentation

Showing up to 5 results
|